Weather in Krasnoyarskoye

Russia / Altai Krai     51°44′57″N   81°35′52″E
temp.,
°C
wind,
m/s
gust,
m/s
humid.,
%
clouds,
%
prec.,
mm/h
press.,
hPa
HPBL,
m
25 february, thu
thu2501:00−14sw3491100 0.1 101872
04:00−16wsw3389100 0.0 101864
07:00−18wsw4988100 0.0 1020297
10:00−22sw498929 0.0 1023247
13:00−17sw9147431 0.0 10231189
16:00−16ssw11177398 0.0 10232199
19:00−16sw9158699 0.1 10241632
22:00−19sw81581100 0.1 10261406
26 february, fri
fri2601:00−22sw8168094 0.1 1028792
04:00−22sw91487100 0.0 1031956
07:00−23sw81492100 0.1 1034800
10:00−24ssw81389100 0.1 1037509
13:00−22ssw81188100 0.1 1037840
16:00−21ssw71085100 0.0 1037982
19:00−22sw51288100 0.0 1038472
22:00−24ssw41091100 0.0 1040237
27 february, sat
sat2701:00−27sw479299 0.0 104098
04:00−28sw349127 0.0 103937
07:00−28sw339114 0.0 103919
10:00−26ssw35910 0.0 1040112
13:00−22ssw35880 0.0 1039305
16:00−20ssw35860 0.0 1038361
19:00−23ssw22920 0.0 103820
22:00−25s22900 0.0 103920
28 february, sun
sun2801:00−26ssw22910 0.0 103819
04:00−23s119187 0.0 103820
07:00−20ssw239486 0.0 103823
10:00−16s4138730 0.0 1037346
13:00−10s7148027 0.0 1034711
16:00−9s8157672 0.0 1032688
19:00−8s8177886 0.0 1029726
22:00−8s102075100 0.0 1028749
1 march, mon
mon101:00−8ssw122173100 0.1 1026787
04:00−8ssw122182100 0.1 1024758
07:00−8ssw122191100 0.7 1023732
10:00−7ssw122092100 0.9 1023744
13:00−6ssw121993100 1.9 1022760
16:00−5ssw111791100 0.5 1021760
19:00−5ssw101788100 0.7 1021596
22:00−5ssw91691100 0.1 1021512